WEINA 1A (43169 NORAD) Tracking and Keplerian Element Data

This shows tracking and keplerian element data for the satellite.

Feedback or suggestion? Click here.




ElementValue
Catalog43169
NameWEINA 1A
Epoch Orbit38327
Epoch Day34.81730832
Epoch Year2025
RAAN304.1389
Inclination34.997
Eccentricity0.0003443
Argument of Perigee353.5132
Mean Anonmoly6.553
Mean Motion14.97523156
Decay Rate5.141E-05
L11 43169U 18011A 25034.81730832 .00005141 00000+0 43434-3 0 9991
L22 43169 34.9970 304.1389 0003443 353.5132 6.5530 14.97523156383276



Live tracking and technical data element details for WEINA 1A (NORAD 43169). WEINA 1A can be tracked NOW for your location showing map with azimuth and elevation plus other details from your city location.







IsCatalogInMostPopularTable: catalog: 43169, numindb: 546
Update: records affected: 1



GetName: 43169 WEINA 1A

Hit Count: updated at: Fri, 16 May 2025 11:32:39 GMT